period_start,C,m1,H,J0,J1,J2,J3,J4,J5,JA,JB,JC,JD,JJ,JK,JN,#
2014-06-02 00:04:25,0.00,0.94,0.00,22.73,26.87,29.32,9.57,39.46,1012.10,2041.00,3094.04,3051.01,3319.98,500.13,495.15,34.03,0000 0000 0000 0000 000000
2014-06-02 00:09:26,0.00,0.94,0.00,22.75,26.89,29.33,9.54,39.49,1012.03,2041.01,3094.00,3051.00,3319.97,500.11,495.05,34.07,0000 0000 0000 0000 000000
2014-06-02 00:14:27,0.00,0.94,0.00,22.78,26.90,29.33,9.61,39.67,1012.06,2041.00,3094.00,3051.00,3319.89,500.40,495.37,34.12,0000 0000 0000 0000 000000
2014-06-02 00:19:28,0.00,0.94,0.00,22.81,26.90,29.34,9.52,39.52,1012.16,2041.00,3094.00,3050.99,3319.59,499.54,494.34,34.16,0000 0000 0000 0000 000000
2014-06-02 00:24:29,0.01,0.94,0.00,22.83,26.92,29.36,9.58,39.41,1012.15,2041.00,3093.97,3050.85,3319.06,500.28,495.00,34.20,0000 0000 0000 0000 000000
2014-06-02 00:29:30,0.03,0.94,0.00,22.86,26.93,29.38,9.55,39.42,1012.21,2041.00,3093.66,3050.33,3319.00,499.63,494.42,34.24,0000 0000 0000 0000 000000
2014-06-02 00:34:31,0.01,0.94,0.00,22.88,26.95,29.39,9.60,39.45,1012.22,2041.00,3093.45,3050.05,3318.99,500.54,495.21,34.28,0000 0000 0000 0000 000000
2014-06-02 00:39:33,0.01,0.94,0.00,22.91,26.96,29.40,9.53,39.35,1012.19,2040.98,3093.11,3050.00,3318.96,499.41,494.10,34.32,0000 0000 0000 0000 000000
2014-06-02 00:44:34,0.01,0.94,0.00,22.94,26.97,29.41,9.53,39.36,1012.18,2040.95,3093.01,3050.00,3318.42,500.12,494.85,34.37,0000 0000 0000 0000 000000
2014-06-02 00:49:34,0.00,0.94,0.00,22.97,27.00,29.42,9.52,39.46,1012.20,2040.93,3093.01,3050.00,3318.18,499.99,494.66,34.41,0000 0000 0000 0000 000000
2014-06-02 00:54:35,-0.00,0.94,0.00,22.98,27.01,29.44,9.57,39.37,1012.20,2040.88,3092.99,3049.97,3318.11,500.61,495.09,34.45,0000 0000 0000 0000 000000
2014-06-02 00:59:36,0.01,0.94,0.00,23.01,27.02,29.47,9.54,39.45,1012.21,2040.83,3092.81,3049.77,3318.01,500.25,494.75,34.49,0000 0000 0000 0000 000000
2014-06-02 01:04:37,-0.00,0.94,0.00,23.03,27.05,29.48,9.50,39.36,1012.22,2040.68,3092.67,3049.44,3318.00,500.04,494.53,34.53,0000 0000 0000 0000 000000
2014-06-02 01:09:38,0.00,0.94,0.00,23.05,27.06,29.50,9.51,39.19,1012.20,2040.46,3092.22,3049.11,3318.00,499.90,494.38,34.57,0000 0000 0000 0000 000000
2014-06-02 01:14:39,-0.03,0.94,0.00,23.07,27.08,29.52,9.50,39.29,1012.15,2040.10,3092.03,3049.01,3317.84,499.85,494.16,34.62,0000 0000 0000 0000 000000
2014-06-02 01:19:40,0.00,0.94,0.00,23.09,27.10,29.53,9.56,39.39,1012.21,2040.03,3092.00,3048.99,3317.22,500.48,494.71,34.66,0000 0000 0000 0000 000000
2014-06-02 01:24:41,0.00,0.94,0.00,23.12,27.12,29.55,9.47,39.33,1012.22,2040.00,3091.99,3048.97,3317.01,500.02,494.35,34.70,0000 0000 0000 0000 000000
2014-06-02 01:29:43,0.01,0.94,0.00,23.12,27.13,29.57,9.53,39.29,1012.15,2040.00,3091.92,3048.79,3317.00,499.85,494.22,34.74,0000 0000 0000 0000 000000
2014-06-02 01:34:44,0.03,0.94,0.00,23.14,27.15,29.59,9.57,39.31,1011.93,2040.00,3091.43,3048.27,3316.97,500.57,494.59,34.78,0000 0000 0000 0000 000000
2014-06-02 01:39:45,0.01,0.94,0.00,23.16,27.17,29.62,9.53,39.32,1011.80,2040.00,3091.04,3048.03,3316.77,500.23,494.53,34.82,0000 0000 0000 0000 000000
2014-06-02 01:44:46,0.01,0.94,0.00,23.17,27.19,29.63,9.52,39.36,1011.81,2040.00,3091.02,3048.01,3316.38,499.73,493.79,34.87,0000 0000 0000 0000 000000
2014-06-02 01:49:47,0.00,0.94,0.00,23.19,27.20,29.65,9.56,39.25,1011.79,2039.98,3091.00,3048.00,3316.05,500.17,494.36,34.91,0000 0000 0000 0000 000000
2014-06-02 01:54:48,-0.00,0.94,0.00,23.20,27.22,29.67,9.58,39.37,1011.80,2039.96,3090.98,3047.99,3316.01,500.24,494.07,34.95,0000 0000 0000 0000 000000
2014-06-02 01:59:49,0.00,0.94,0.00,23.22,27.23,29.69,9.49,39.33,1011.90,2039.93,3090.96,3047.95,3316.00,499.84,493.84,34.99,0000 0000 0000 0000 000000
2014-06-02 02:04:50,0.00,0.94,0.00,23.22,27.25,29.70,9.51,39.30,1012.13,2039.89,3090.80,3047.87,3315.98,499.89,493.93,35.03,0000 0000 0000 0000 000000
2014-06-02 02:09:51,0.01,0.94,0.00,23.23,27.27,29.72,9.50,39.16,1012.16,2039.85,3090.51,3047.67,3315.97,500.38,494.43,35.07,0000 0000 0000 0000 000000
2014-06-02 02:14:52,-0.01,0.94,0.00,23.24,27.28,29.74,9.55,39.51,1012.18,2039.63,3090.06,3047.21,3315.73,499.81,494.09,35.12,0000 0000 0000 0000 000000
2014-06-02 02:19:54,0.01,0.94,0.00,23.26,27.30,29.75,9.50,39.18,1012.22,2039.50,3090.00,3047.03,3315.16,499.94,494.07,35.16,0000 0000 0000 0000 000000
2014-06-02 02:24:54,-0.02,0.94,0.00,23.27,27.31,29.77,9.52,39.32,1012.22,2039.27,3089.99,3047.00,3315.01,500.14,494.26,35.20,0000 0000 0000 0000 000000
2014-06-02 02:29:56,-0.01,0.94,0.00,23.28,27.32,29.78,9.50,39.35,1012.22,2039.10,3089.97,3046.99,3315.00,499.91,493.92,35.24,0000 0000 0000 0000 000000
2014-06-02 02:34:57,0.00,0.94,0.00,23.29,27.35,29.80,9.53,39.23,1012.22,2039.03,3089.76,3046.94,3314.98,499.97,494.23,35.28,0000 0000 0000 0000 000000
2014-06-02 02:39:58,0.01,0.94,0.00,23.30,27.36,29.82,9.52,39.30,1012.23,2039.01,3089.40,3046.77,3314.95,499.82,493.96,35.32,0000 0000 0000 0000 000000
2014-06-02 02:44:59,0.03,0.94,0.00,23.30,27.37,29.83,9.49,39.26,1012.23,2039.00,3089.08,3046.21,3314.59,499.76,493.93,35.37,0000 0000 0000 0000 000000
2014-06-02 02:50:00,0.01,0.94,0.00,23.32,27.39,29.84,9.50,39.15,1012.24,2039.00,3089.00,3046.03,3314.11,500.08,494.12,35.41,0000 0000 0000 0000 000000
2014-06-02 02:55:01,0.00,0.94,0.00,23.33,27.40,29.86,9.55,39.36,1012.26,2039.00,3089.00,3046.00,3314.01,499.73,493.76,35.45,0000 0000 0000 0000 000000
2014-06-02 03:00:01,0.00,0.94,0.00,23.35,27.42,29.87,9.46,39.21,1012.29,2038.98,3088.99,3046.00,3314.00,499.82,493.74,35.49,0000 0000 0000 0000 000000
2014-06-02 03:05:03,0.00,0.94,0.00,23.35,27.42,29.89,9.53,39.32,1012.40,2038.99,3088.96,3046.00,3314.00,499.95,494.06,35.53,0000 0000 0000 0000 000000
2014-06-02 03:10:04,-0.00,0.94,0.00,23.37,27.45,29.89,9.50,39.21,1012.43,2038.98,3088.88,3045.98,3313.98,499.82,493.69,35.57,0000 0000 0000 0000 000000
2014-06-02 03:15:05,0.01,0.95,0.00,23.38,27.46,29.91,9.58,39.29,1012.33,2038.98,3088.42,3045.92,3313.92,500.33,494.28,35.62,0000 0000 0000 0000 000000
2014-06-02 03:20:06,0.01,0.95,0.00,23.39,27.47,29.92,9.53,39.35,1012.39,2038.97,3088.11,3045.72,3313.69,500.22,494.21,35.66,0000 0000 0000 0000 000000
2014-06-02 03:25:07,0.02,0.95,0.00,23.40,27.48,29.93,9.55,39.32,1012.48,2038.89,3088.02,3045.21,3313.13,500.51,494.56,35.70,0000 0000 0000 0000 000000
2014-06-02 03:30:08,-0.01,0.95,0.00,23.42,27.50,29.95,9.53,39.25,1012.55,2038.75,3088.00,3045.05,3313.02,499.93,494.10,35.74,0000 0000 0000 0000 000000
2014-06-02 03:35:09,-0.04,0.95,0.00,23.42,27.51,29.96,9.54,39.33,1012.57,2038.51,3087.99,3045.00,3313.00,499.93,493.88,35.78,0000 0000 0000 0000 000000
2014-06-02 03:40:10,-0.01,0.95,0.00,23.44,27.52,29.98,9.50,39.26,1012.62,2038.44,3087.91,3045.00,3313.00,499.95,493.95,35.82,0000 0000 0000 0000 000000
2014-06-02 03:45:10,-0.01,0.94,0.00,23.45,27.53,29.99,9.55,39.35,1012.58,2038.24,3087.63,3045.00,3312.98,500.09,494.03,35.87,0000 0000 0000 0000 000000
2014-06-02 03:50:11,0.01,0.94,0.00,23.46,27.55,30.00,9.52,39.39,1012.37,2038.07,3087.35,3044.97,3312.91,500.19,494.02,35.91,0000 0000 0000 0000 000000
2014-06-02 03:55:12,0.01,0.94,0.00,23.48,27.56,30.02,9.58,39.44,1012.23,2038.02,3087.02,3044.87,3312.57,500.11,493.74,35.95,0000 0000 0000 0000 000000
2014-06-02 04:00:13,0.02,0.95,0.00,23.50,27.57,30.03,9.50,39.52,1012.23,2038.01,3087.00,3044.44,3312.10,499.39,493.22,35.99,0000 0000 0000 0000 000000
2014-06-02 04:05:14,0.01,0.95,0.00,23.51,27.58,30.04,9.48,39.23,1012.22,2038.00,3087.00,3044.15,3312.01,500.08,493.74,36.03,0000 0000 0000 0000 000000
2014-06-02 04:10:15,0.00,0.95,0.00,23.53,27.60,30.05,9.51,39.26,1012.22,2038.00,3086.97,3044.02,3312.00,500.25,493.89,36.07,0000 0000 0000 0000 000000
2014-06-02 04:15:16,0.00,0.95,0.00,23.54,27.61,30.05,9.54,39.33,1012.22,2038.00,3086.88,3044.00,3312.00,499.85,493.58,36.12,0000 0000 0000 0000 000000
2014-06-02 04:20:17,0.01,0.95,0.00,23.56,27.62,30.07,9.48,39.38,1012.23,2038.00,3086.43,3044.00,3311.98,499.61,493.20,36.16,0000 0000 0000 0000 000000
2014-06-02 04:25:18,0.00,0.95,0.00,23.57,27.64,30.09,9.53,39.26,1012.25,2038.00,3086.09,3043.98,3311.91,500.08,493.66,36.20,0000 0000 0000 0000 000000
2014-06-02 04:30:19,0.01,0.95,0.00,23.58,27.65,30.09,9.59,39.23,1012.29,2037.99,3086.02,3043.94,3311.44,500.70,494.29,36.24,0000 0000 0000 0000 000000
2014-06-02 04:35:20,0.01,0.95,0.00,23.60,27.66,30.11,9.54,39.22,1012.25,2037.99,3086.00,3043.77,3311.10,500.39,493.92,36.28,0000 0000 0000 0000 000000
2014-06-02 04:40:22,0.01,0.95,0.00,23.62,27.67,30.12,9.54,39.31,1012.28,2037.98,3085.99,3043.36,3311.01,499.50,493.13,36.32,0000 0000 0000 0000 000000
2014-06-02 04:45:23,0.01,0.95,0.00,23.62,27.70,30.14,9.44,39.17,1012.30,2037.98,3085.97,3043.04,3311.00,499.76,493.29,36.37,0000 0000 0000 0000 000000
2014-06-02 04:50:24,0.01,0.95,0.00,23.63,27.70,30.15,9.54,39.23,1012.26,2037.97,3085.76,3043.01,3310.99,499.98,493.69,36.41,0000 0000 0000 0000 000000
2014-06-02 04:55:25,0.01,0.95,0.00,23.64,27.72,30.16,9.54,39.32,1012.27,2037.91,3085.35,3043.00,3310.92,499.89,493.42,36.45,0000 0000 0000 0000 000000
2014-06-02 05:00:26,-0.01,0.95,0.00,23.66,27.73,30.18,9.53,39.19,1012.42,2037.71,3085.02,3042.98,3310.26,499.86,493.66,36.49,0000 0000 0000 0000 000000
2014-06-02 05:05:27,-0.01,0.95,0.00,23.66,27.75,30.20,9.52,39.17,1012.58,2037.49,3085.00,3042.93,3310.05,500.23,493.97,36.53,0000 0000 0000 0000 000000
2014-06-02 05:10:28,-0.01,0.95,0.00,23.67,27.75,30.20,9.57,39.37,1012.67,2037.26,3084.99,3042.65,3310.00,500.29,494.09,36.57,0000 0000 0000 0000 000000
2014-06-02 05:15:29,0.01,0.95,0.00,23.67,27.77,30.21,9.47,39.27,1012.63,2037.25,3084.98,3042.49,3310.00,499.81,493.44,36.62,0000 0000 0000 0000 000000
2014-06-02 05:20:30,-0.01,0.95,0.00,23.68,27.78,30.22,9.56,39.31,1012.68,2037.13,3084.86,3042.08,3310.00,500.28,493.87,36.66,0000 0000 0000 0000 000000
2014-06-02 05:25:31,0.01,0.95,0.00,23.70,27.80,30.24,9.51,39.36,1012.70,2037.05,3084.32,3042.00,3309.95,500.05,493.69,36.70,0000 0000 0000 0000 000000
2014-06-02 05:30:32,0.01,0.95,0.00,23.72,27.80,30.25,9.50,39.21,1012.65,2037.02,3084.02,3042.00,3309.58,500.03,493.69,36.74,0000 0000 0000 0000 000000
2014-06-02 05:35:33,0.00,0.95,0.00,23.72,27.82,30.27,9.48,39.12,1012.62,2037.03,3084.00,3042.00,3309.36,499.68,493.32,36.78,0000 0000 0000 0000 000000
2014-06-02 05:40:34,0.00,0.95,0.00,23.73,27.82,30.28,9.56,39.21,1012.52,2037.01,3084.00,3041.97,3309.07,500.38,494.05,36.82,0000 0000 0000 0000 000000
2014-06-02 05:45:35,0.01,0.95,0.00,23.67,27.84,30.30,9.48,39.29,1012.27,2037.00,3083.93,3041.82,3309.01,500.06,493.38,36.87,0000 0000 0000 0000 000000
2014-06-02 05:50:36,0.01,0.95,0.00,23.61,27.85,30.33,9.51,39.26,1012.56,2037.00,3083.82,3041.57,3309.00,500.17,493.86,36.91,0000 0000 0000 0000 000000
2014-06-02 05:55:37,0.02,0.95,0.00,23.57,27.85,30.34,9.53,39.35,1012.53,2037.00,3083.47,3041.21,3309.00,500.17,494.06,36.95,0000 0000 0000 0000 000000
2014-06-02 06:00:38,0.01,0.95,0.00,23.56,27.85,30.34,9.48,39.62,1012.29,2037.00,3083.04,3041.02,3308.96,499.96,493.61,36.99,0000 0000 0000 0000 000000
2014-06-02 06:05:40,0.00,0.95,0.00,23.54,27.85,30.34,9.51,39.47,1012.26,2037.00,3083.00,3041.02,3308.93,499.93,493.60,37.03,0000 0000 0000 0000 000000
2014-06-02 06:10:40,-0.00,0.95,0.00,23.53,27.85,30.33,9.47,39.48,1012.24,2037.00,3083.00,3041.02,3308.91,499.96,493.89,37.07,0000 0000 0000 0000 000000
2014-06-02 06:15:41,0.00,0.95,0.00,23.53,27.85,30.32,9.53,39.66,1012.23,2037.00,3083.00,3041.00,3308.66,499.95,493.62,37.12,0000 0000 0000 0000 000000
2014-06-02 06:20:42,0.00,0.95,0.00,23.55,27.85,30.32,9.50,39.45,1012.24,2037.00,3083.00,3041.00,3308.49,499.98,493.69,37.16,0000 0000 0000 0000 000000
2014-06-02 06:25:43,-0.00,0.95,0.00,23.55,27.85,30.31,9.61,39.29,1012.40,2037.00,3083.00,3041.01,3308.56,500.76,494.51,37.20,0000 0000 0000 0000 000000
2014-06-02 06:30:44,0.00,0.95,0.00,23.56,27.85,30.30,9.52,39.40,1012.59,2037.00,3082.99,3041.00,3308.22,500.11,494.01,37.24,0000 0000 0000 0000 000000
2014-06-02 06:35:46,0.00,0.95,0.00,23.59,27.85,30.30,9.51,39.37,1012.66,2037.00,3082.98,3041.00,3308.17,500.03,493.79,37.28,0000 0000 0000 0000 000000
2014-06-02 06:40:47,0.00,0.95,0.00,23.62,27.85,30.30,9.52,39.32,1012.57,2037.00,3082.96,3041.00,3308.03,500.08,493.73,37.32,0000 0000 0000 0000 000000
2014-06-02 06:45:48,0.01,0.95,0.00,23.66,27.85,30.28,9.51,39.38,1012.68,2037.00,3082.85,3040.98,3308.02,500.03,493.57,37.37,0000 0000 0000 0000 000000
2014-06-02 06:50:49,0.01,0.95,0.00,23.70,27.85,30.28,9.47,39.38,1012.70,2037.00,3082.52,3040.92,3308.00,500.07,493.66,37.41,0000 0000 0000 0000 000000
2014-06-02 06:55:50,0.00,0.95,0.00,23.73,27.87,30.29,9.56,39.43,1012.71,2037.00,3082.29,3040.93,3308.00,500.44,493.91,37.45,0000 0000 0000 0000 000000
2014-06-02 07:00:51,0.02,0.95,0.00,23.77,27.87,30.29,9.50,39.32,1012.71,2037.00,3082.12,3040.61,3307.99,500.29,493.79,37.49,0000 0000 0000 0000 000000
2014-06-02 07:05:52,0.00,0.95,0.00,23.80,27.87,30.29,9.51,39.28,1012.71,2037.00,3082.03,3040.37,3307.98,500.22,493.67,37.53,0000 0000 0000 0000 000000
2014-06-02 07:10:53,0.01,0.95,0.00,23.83,27.89,30.31,9.49,39.33,1012.71,2037.00,3082.00,3040.13,3307.95,499.74,493.05,37.57,0000 0000 0000 0000 000000
2014-06-02 07:15:54,0.00,0.95,0.00,23.86,27.90,30.31,9.46,39.30,1012.71,2036.99,3082.00,3040.02,3307.77,500.18,493.56,37.62,0000 0000 0000 0000 000000
2014-06-02 07:20:55,0.00,0.95,0.00,23.89,27.91,30.32,9.47,39.40,1012.71,2036.97,3082.00,3040.00,3307.50,499.91,493.53,37.66,0000 0000 0000 0000 000000
2014-06-02 07:25:56,0.01,0.96,0.00,23.92,27.92,30.33,9.47,39.28,1012.71,2036.95,3081.99,3040.01,3307.12,499.79,493.03,37.70,0000 0000 0000 0000 000000
2014-06-02 07:30:58,-0.00,0.95,0.00,23.94,27.94,30.35,9.46,39.36,1012.71,2036.91,3081.99,3040.00,3307.04,499.49,493.02,37.74,0000 0000 0000 0000 000000
2014-06-02 07:35:59,-0.01,0.95,0.00,23.97,27.95,30.37,9.46,39.23,1012.71,2036.81,3081.92,3040.00,3307.00,499.71,492.95,37.78,0000 0000 0000 0000 000000
2014-06-02 07:41:00,-0.03,0.95,0.00,23.99,27.97,30.38,9.44,39.37,1012.71,2036.42,3081.60,3039.98,3307.00,499.47,492.76,37.82,0000 0000 0000 0000 000000
2014-06-02 07:46:01,0.01,0.95,0.00,24.02,27.98,30.40,9.47,39.27,1012.71,2036.37,3081.15,3039.96,3306.99,499.59,492.52,37.87,0000 0000 0000 0000 000000
2014-06-02 07:51:02,0.00,0.95,0.00,24.05,28.00,30.41,9.50,39.23,1012.71,2036.31,3081.06,3039.83,3306.95,500.14,493.24,37.91,0000 0000 0000 0000 000000
2014-06-02 07:56:03,0.00,0.95,0.00,24.07,28.01,30.43,9.48,39.26,1012.71,2036.05,3081.01,3039.25,3306.59,500.00,492.98,37.95,0000 0000 0000 0000 000000
2014-06-02 08:01:04,0.00,0.95,0.00,24.09,28.03,30.46,9.49,39.29,1012.71,2036.02,3080.98,3039.02,3306.08,499.94,492.87,37.99,0000 0000 0000 0000 000000
2014-06-02 08:06:05,0.00,0.95,0.00,24.11,28.05,30.47,9.51,39.20,1012.71,2036.00,3080.94,3039.00,3306.00,500.17,493.07,38.03,0000 0000 0000 0000 000000
2014-06-02 08:11:07,0.01,0.95,0.00,24.12,28.07,30.50,9.48,39.25,1012.72,2036.00,3080.73,3038.97,3306.00,499.92,492.89,38.07,0000 0000 0000 0000 000000
2014-06-02 08:16:08,0.02,0.95,0.00,24.13,28.09,30.52,9.53,39.14,1012.72,2036.00,3080.26,3038.75,3305.97,500.03,492.93,38.12,0000 0000 0000 0000 000000
2014-06-02 08:21:09,0.02,0.96,0.00,24.15,28.11,30.53,9.47,39.34,1012.74,2036.00,3080.03,3038.31,3305.81,499.66,492.59,38.16,0000 0000 0000 0000 000000
2014-06-02 08:26:10,0.01,0.96,0.00,24.15,28.12,30.55,9.46,39.38,1012.76,2035.99,3080.00,3038.08,3305.38,500.01,492.81,38.20,0000 0000 0000 0000 000000
2014-06-02 08:31:11,0.00,0.96,0.00,24.16,28.14,30.58,9.47,39.27,1012.93,2035.98,3079.99,3038.03,3305.08,499.78,492.84,38.24,0000 0000 0000 0000 000000
2014-06-02 08:36:12,-0.00,0.96,0.00,24.17,28.16,30.60,9.48,39.33,1012.92,2035.96,3079.98,3038.00,3305.01,500.04,492.99,38.28,0000 0000 0000 0000 000000
2014-06-02 08:41:13,-0.01,0.96,0.00,24.18,28.17,30.62,9.49,39.25,1012.95,2035.87,3079.94,3038.00,3305.00,499.83,492.79,38.32,0000 0000 0000 0000 000000
2014-06-02 08:46:14,-0.01,0.96,0.00,24.19,28.19,30.64,9.49,39.27,1013.03,2035.67,3079.43,3037.96,3304.97,499.47,492.33,38.37,0000 0000 0000 0000 000000
2014-06-02 08:51:15,-0.04,0.95,0.00,24.20,28.20,30.66,9.52,39.37,1013.14,2035.20,3079.15,3037.87,3304.91,500.19,493.20,38.41,0000 0000 0000 0000 000000
2014-06-02 08:56:16,0.02,0.95,0.00,24.20,28.22,30.68,9.50,39.18,1013.19,2035.07,3079.02,3037.52,3304.61,499.87,492.89,38.45,0000 0000 0000 0000 000000
2014-06-02 09:01:17,0.01,0.95,0.00,24.20,28.24,30.69,9.40,39.18,1013.20,2035.02,3079.01,3037.12,3304.16,499.65,492.79,38.49,0000 0000 0000 0000 000000
2014-06-02 09:06:18,0.00,0.96,0.00,24.20,28.25,30.71,9.54,39.25,1013.20,2035.00,3079.00,3037.01,3304.01,500.11,493.05,38.53,0000 0000 0000 0000 000000
2014-06-02 09:11:20,0.00,0.96,0.00,24.21,28.27,30.72,9.51,39.33,1013.20,2035.00,3079.00,3037.00,3304.00,500.18,493.21,38.57,0000 0000 0000 0000 000000
2014-06-02 09:16:21,0.00,0.96,0.00,24.22,28.28,30.74,9.47,39.24,1013.20,2035.00,3078.97,3037.00,3304.00,500.09,492.99,38.62,0000 0000 0000 0000 000000
2014-06-02 09:21:22,0.00,0.96,0.00,24.22,28.30,30.76,9.51,39.21,1013.20,2035.00,3078.76,3037.00,3303.99,500.30,493.39,38.66,0000 0000 0000 0000 000000
2014-06-02 09:26:23,0.01,0.96,0.00,24.22,28.31,30.77,9.51,39.22,1013.20,2034.99,3078.47,3036.97,3303.96,500.35,493.36,38.70,0000 0000 0000 0000 000000
2014-06-02 09:31:24,0.02,0.96,0.00,24.22,28.32,30.78,9.47,39.48,1013.20,2034.99,3078.14,3036.86,3303.78,499.74,492.74,38.74,0000 0000 0000 0000 000000
2014-06-02 09:36:26,0.01,0.96,0.00,24.22,28.33,30.79,9.49,39.23,1013.20,2034.97,3078.04,3036.71,3303.56,500.25,493.39,38.78,0000 0000 0000 0000 000000
2014-06-02 09:41:27,-0.00,0.96,0.00,24.22,28.35,30.81,9.49,39.23,1013.20,2034.98,3078.02,3036.60,3303.50,499.80,492.86,38.82,0000 0000 0000 0000 000000
2014-06-02 09:46:28,0.01,0.96,0.00,24.22,28.35,30.81,9.50,39.21,1013.20,2034.99,3078.01,3036.41,3303.27,500.09,493.19,38.87,0000 0000 0000 0000 000000
2014-06-02 09:51:29,0.01,0.96,0.00,24.22,28.37,30.83,9.44,39.17,1013.20,2034.98,3078.00,3036.09,3303.05,499.48,492.59,38.91,0000 0000 0000 0000 000000
2014-06-02 09:56:30,0.00,0.96,0.00,24.22,28.37,30.83,9.50,39.27,1013.20,2034.98,3077.98,3036.02,3303.01,499.78,492.82,38.95,0000 0000 0000 0000 000000
2014-06-02 10:01:31,0.00,0.96,0.00,24.22,28.38,30.83,9.55,39.10,1013.22,2034.98,3077.86,3036.00,3303.00,500.16,493.24,38.99,0000 0000 0000 0000 000000
2014-06-02 10:06:33,0.00,0.96,0.00,24.22,28.40,30.85,9.50,39.17,1013.21,2034.95,3077.53,3036.00,3303.00,499.86,492.79,39.03,0000 0000 0000 0000 000000
2014-06-02 10:11:33,0.00,0.96,0.00,24.23,28.40,30.85,9.51,39.27,1013.21,2034.93,3077.30,3036.00,3303.00,500.42,493.35,39.07,0000 0000 0000 0000 000000
2014-06-02 10:16:34,0.00,0.96,0.00,24.24,28.40,30.86,9.47,39.31,1013.21,2034.91,3077.09,3036.00,3302.93,499.68,492.80,39.12,0000 0000 0000 0000 000000
2014-06-02 10:21:36,-0.00,0.96,0.00,24.25,28.42,30.86,9.50,39.13,1013.20,2034.76,3077.02,3035.97,3302.80,500.31,493.25,39.16,0000 0000 0000 0000 000000
2014-06-02 10:26:37,-0.01,0.96,0.00,24.24,28.42,30.87,9.47,39.27,1013.20,2034.74,3077.02,3035.96,3302.62,500.01,492.85,39.20,0000 0000 0000 0000 000000
2014-06-02 10:31:38,-0.03,0.96,0.00,24.25,28.42,30.89,9.51,39.29,1013.20,2034.36,3077.00,3035.79,3302.15,499.90,492.85,39.24,0000 0000 0000 0000 000000
2014-06-02 10:36:39,-0.00,0.96,0.00,24.25,28.44,30.89,9.52,39.48,1013.21,2034.13,3077.00,3035.36,3302.04,499.81,492.67,39.28,0000 0000 0000 0000 000000
2014-06-02 10:41:40,0.00,0.96,0.00,24.25,28.45,30.90,9.51,39.40,1013.23,2034.14,3077.00,3035.17,3302.01,500.36,493.44,39.32,0000 0000 0000 0000 000000
2014-06-02 10:46:41,0.01,0.96,0.00,24.25,28.45,30.91,9.48,39.26,1013.21,2034.09,3076.96,3035.06,3302.00,499.72,492.67,39.37,0000 0000 0000 0000 000000
2014-06-02 10:51:42,-0.00,0.96,0.00,24.24,28.45,30.91,9.49,39.41,1013.24,2034.06,3076.77,3035.01,3302.00,500.01,493.07,39.41,0000 0000 0000 0000 000000
2014-06-02 10:56:43,0.00,0.96,0.00,24.23,28.45,30.91,9.56,39.42,1013.25,2034.05,3076.74,3035.00,3302.00,500.17,493.11,39.45,0000 0000 0000 0000 000000
2014-06-02 11:01:44,0.00,0.96,0.00,24.24,28.47,30.92,9.53,39.24,1013.24,2034.02,3076.35,3035.00,3301.95,500.15,493.03,39.49,0000 0000 0000 0000 000000
2014-06-02 11:06:46,0.00,0.96,0.00,24.24,28.47,30.92,9.53,39.39,1013.21,2034.04,3076.23,3035.00,3301.98,500.21,493.18,39.53,0000 0000 0000 0000 000000
2014-06-02 11:11:47,0.00,0.96,0.00,24.24,28.47,30.91,9.48,39.39,1013.22,2034.01,3076.03,3035.00,3301.94,499.99,492.91,39.57,0000 0000 0000 0000 000000
2014-06-02 11:16:48,0.01,0.96,0.00,24.24,28.47,30.93,9.48,39.27,1013.26,2034.00,3076.02,3034.98,3301.65,499.96,492.87,39.62,0000 0000 0000 0000 000000
2014-06-02 11:21:49,0.00,0.96,0.00,24.23,28.47,30.93,9.46,39.44,1013.29,2034.01,3076.01,3034.98,3301.49,499.64,492.66,39.66,0000 0000 0000 0000 000000
2014-06-02 11:26:50,0.01,0.96,0.00,24.23,28.47,30.93,9.50,39.43,1013.43,2034.00,3076.00,3034.92,3301.17,500.09,493.06,39.70,0000 0000 0000 0000 000000
2014-06-02 11:31:51,0.01,0.96,0.00,24.22,28.47,30.93,9.51,39.19,1013.52,2034.00,3075.99,3034.76,3301.04,500.09,493.14,39.74,0000 0000 0000 0000 000000
2014-06-02 11:36:52,-0.00,0.96,0.00,24.22,28.47,30.93,9.51,39.38,1013.57,2034.00,3075.99,3034.85,3301.07,500.05,493.18,39.78,0000 0000 0000 0000 000000
2014-06-02 11:41:53,0.01,0.96,0.00,24.21,28.48,30.94,9.52,39.23,1013.62,2034.00,3075.98,3034.64,3301.02,500.43,493.56,39.82,0000 0000 0000 0000 000000
2014-06-02 11:46:55,0.01,0.96,0.00,24.20,28.48,30.93,9.60,39.20,1013.67,2034.00,3075.95,3034.32,3301.01,500.43,493.62,39.87,0000 0000 0000 0000 000000
2014-06-02 11:51:56,0.01,0.96,0.00,24.20,28.48,30.94,9.61,39.27,1013.69,2034.00,3075.88,3034.07,3301.00,500.49,493.75,39.91,0000 0000 0000 0000 000000
2014-06-02 11:56:57,0.01,0.96,0.00,24.19,28.48,30.94,9.51,39.24,1013.69,2034.00,3075.61,3034.05,3301.00,499.76,493.14,39.95,0000 0000 0000 0000 000000
2014-06-02 12:01:58,0.01,0.96,0.00,24.17,28.48,30.95,9.49,39.17,1013.68,2034.00,3075.28,3034.04,3301.00,499.92,493.18,39.99,0000 0000 0000 0000 000000
2014-06-02 12:06:59,0.00,0.96,0.00,24.17,28.48,30.94,9.51,39.19,1013.69,2034.00,3075.10,3034.03,3301.00,499.94,493.13,40.03,0000 0000 0000 0000 000000
2014-06-02 12:12:00,0.00,0.96,0.00,24.17,28.48,30.95,9.53,39.25,1013.69,2034.00,3075.09,3034.01,3301.00,500.06,493.63,40.07,0000 0000 0000 0000 000000
2014-06-02 12:17:02,0.00,0.96,0.00,24.15,28.47,30.94,9.48,39.34,1013.69,2034.00,3075.09,3034.00,3301.00,500.00,493.36,40.12,0000 0000 0000 0000 000000
2014-06-02 12:22:03,0.00,0.96,0.00,24.15,28.47,30.94,9.49,39.37,1013.68,2034.00,3075.03,3034.00,3300.98,500.05,493.42,40.16,0000 0000 0000 0000 000000
2014-06-02 12:27:04,0.00,0.96,0.00,24.13,28.47,30.93,9.55,39.44,1013.68,2034.00,3075.01,3034.00,3300.96,499.87,493.33,40.20,0000 0000 0000 0000 000000
2014-06-02 12:32:05,0.00,0.96,0.00,24.12,28.47,30.93,9.56,39.33,1013.69,2034.00,3075.00,3034.00,3300.90,500.15,493.48,40.24,0000 0000 0000 0000 000000
2014-06-02 12:37:06,0.00,0.96,0.00,24.11,28.47,30.92,9.46,39.30,1013.69,2034.00,3075.00,3034.00,3300.72,499.34,492.78,40.28,0000 0000 0000 0000 000000
2014-06-02 12:42:07,-0.00,0.96,0.00,24.10,28.47,30.92,9.45,39.15,1013.68,2034.00,3075.00,3034.00,3300.69,499.76,493.10,40.32,0000 0000 0000 0000 000000
2014-06-02 12:47:08,0.00,0.96,0.00,24.09,28.47,30.92,9.55,39.37,1013.66,2034.00,3074.98,3033.99,3300.36,500.44,493.95,40.37,0000 0000 0000 0000 000000
2014-06-02 12:52:09,0.00,0.96,0.00,24.08,28.46,30.92,9.53,39.24,1013.68,2034.00,3074.98,3033.98,3300.37,500.29,493.82,40.41,0000 0000 0000 0000 000000
2014-06-02 12:57:11,-0.01,0.96,0.00,24.06,28.45,30.92,9.60,39.44,1013.67,2034.00,3074.99,3033.99,3300.56,500.23,493.77,40.45,0000 0000 0000 0000 000000
2014-06-02 13:02:11,0.01,0.96,0.00,24.05,28.45,30.92,9.53,39.40,1013.63,2034.00,3074.87,3033.98,3300.25,500.11,493.50,40.49,0000 0000 0000 0000 000000